Flag for U.S.A. Weather past 2 weeks in Pasco, Washington, U.S.A.

Now
31 °F

Clear.


Feels Like: 31 °F
Forecast: 29 / 43 °F
Wind: No wind

Location: Tri-Cities Airport

Current Time: Dec 25, 2014 at 4:59:20 AM

Latest Report: Dec 25, 2014 at 3:53 AM


Visibility: 10 mi

Pressure: 30.03 "Hg

Humidity: 92%

Dew point: 29 °F

Location of PascoLocation

Historic Weather in Pasco — Graph

°F

Pasco temperature yesterday

Maximum temperature yesterday: 53 °F (at 12:53 AM)
Minimum temperature yesterday: 37 °F (at 9:53 PM)
Average temperature yesterday: 43 °F

Past Weeks' High & Low Weather Summary

 TemperatureHumidityPressure
High63 °F (Dec 11, 4:53 PM)100% (Dec 10, 3:53 AM)30.39 "Hg (Dec 10, 3:53 AM)
Low25 °F (Dec 14, 3:53 AM)45% (Dec 22, 12:53 PM)29.31 "Hg (Dec 11, 3:53 PM)
Average42 °F88%29.96 "Hg
* Reported Dec 10 3:53 AM — Dec 25 3:53 AM, Pasco, Weather by CustomWeather, © 2014

Note: Actual official high and low records may vary slightly from our data, if they occured in-between our weather recording intervals... More about our weather records

Advertising

Pasco weather history for previous 24 hours

 ConditionsComfort  
Time TempWeatherWind HumidityBarometerVisibility
3:53 AM
Dec 25
31 °FClear.No wind92%30.03 "Hg10 mi
2:53 AM31 °FClear.No wind92%30.01 "Hg10 mi
1:53 AM33 °FClear.8 mph88%29.98 "Hg10 mi
12:53 AM36 °FClear.3 mph75%29.96 "Hg10 mi
11:53 PM
Dec 24
38 °FClear.8 mph73%29.94 "Hg10 mi
10:53 PM39 °FClear.8 mph67%29.93 "Hg10 mi
9:53 PM37 °FClear.9 mph76%29.90 "Hg10 mi
8:53 PM41 °FPassing clouds.3 mph62%29.88 "Hg10 mi
7:53 PM41 °FPassing clouds.6 mph62%29.86 "Hg10 mi
6:53 PM41 °FClear.13 mph65%29.84 "Hg10 mi
5:53 PM40 °FPassing clouds.10 mph80%29.82 "Hg10 mi
4:53 PM41 °FClear.9 mph89%29.81 "Hg10 mi
3:53 PM43 °FScattered clouds.10 mph89%29.79 "Hg10 mi
2:53 PM44 °FBroken clouds.10 mph93%29.78 "Hg10 mi
1:53 PM44 °FOvercast.5 mph93%29.76 "Hg10 mi
12:53 PM43 °FOvercast.3 mph97%29.75 "Hg10 mi
11:53 AM43 °FLight rain. Cloudy.6 mph97%29.78 "Hg10 mi
10:53 AM42 °FLight rain. Mostly cloudy.No wind100%29.80 "Hg10 mi
9:53 AM42 °FLight rain. Mostly cloudy.5 mph100%29.81 "Hg7 mi
8:53 AM42 °FLight rain. Fog.5 mph100%29.80 "Hg4 mi
7:53 AM42 °FLight rain. Fog.No wind100%29.81 "Hg4 mi
6:53 AM42 °FLight rain. Fog.10 mph100%29.83 "Hg5 mi
5:53 AM42 °FRain. Fog.7 mph100%29.84 "Hg5 mi
5:03 AM43 °FLight rain. Fog.13 mph100%29.84 "Hg5 mi
4:53 AM43 °FLight rain. Fog.14 mph100%29.85 "Hg5 mi
4:00 AM44 °FLight rain. Mostly cloudy.12 mph96%29.83 "Hg7 mi
Weather by CustomWeather, © 2014

See weather overviewHow to use our weather pages